GW6607 Weather Reports


time (UTC)temp
F
wind
direction
speed
knots
gust
knots
rain 1hr
in
rain 24hr
in
rain mn
in
humidity
%
barometer
mb
20260507105508 47 314 0.0 0.0 0.00 0.23 0.01 89 1007.2
20260507105008 47 314 0.0 0.0 0.00 0.23 0.01 89 1007.3
20260507104524 47 314 0.0 0.0 0.00 0.23 0.01 89 1006.9
20260507104015 47 309 0.0 0.0 0.00 0.23 0.01 89 1006.9
20260507103508 47 309 0.0 0.0 0.00 0.23 0.01 89 1007.1
20260507103025 47 309 0.0 0.0 0.00 0.23 0.01 89 1007.7
20260507102510 47 309 0.0 0.0 0.00 0.23 0.01 89 1007.4
20260507102007 47 309 0.0 0.0 0.00 0.23 0.01 89 1007.2
20260507101526 47 309 0.0 1.7 0.00 0.23 0.01 89 1007.2
20260507101007 47 309 0.0 1.7 0.00 0.23 0.01 89 1007.2
20260507100507 47 309 0.0 1.7 0.00 0.23 0.01 89 1007.0
20260507100031 47 288 0.0 1.7 0.00 0.23 0.01 89 1007.0
20260507095509 47 301 0.0 1.7 0.00 0.23 0.01 89 1007.1
20260507095008 47 296 0.0 1.7 0.00 0.23 0.01 89 1007.0
20260507094526 47 269 0.0 2.6 0.00 0.23 0.01 89 1007.2
20260507094006 48 275 0.0 2.6 0.00 0.23 0.01 89 1007.0
20260507093510 48 310 0.9 2.6 0.00 0.23 0.01 89 1006.1
20260507093036 48 320 0.9 2.6 0.00 0.23 0.01 90 1006.5
20260507092512 48 332 0.0 1.7 0.00 0.23 0.01 90 1006.8
20260507092011 48 305 0.0 3.5 0.00 0.23 0.01 90 1006.6
20260507091526 48 303 0.0 4.3 0.00 0.23 0.01 90 1006.5
20260507091008 48 317 0.9 4.3 0.00 0.23 0.01 90 1006.2
20260507090506 48 315 0.9 4.3 0.00 0.23 0.01 90 1006.2
20260507090031 48 313 1.7 5.2 0.00 0.23 0.01 90 1006.4
20260507085507 49 328 1.7 5.2 0.00 0.23 0.01 90 1006.2
20260507085009 49 318 0.9 4.3 0.00 0.23 0.01 90 1006.2
20260507084522 50 311 0.0 4.3 0.00 0.23 0.01 90 1006.2
20260507084013 50 9 0.0 1.7 0.00 0.23 0.01 91 1006.2
20260507083510 50 294 0.0 1.7 0.00 0.23 0.01 92 1006.4
20260507083010 50 314 0.0 1.7 0.00 0.23 0.01 92 1006.7
20260507082503 50 307 0.0 1.7 0.00 0.23 0.01 92 1006.6
20260507082007 50 315 0.0 0.0 0.00 0.23 0.01 92 1006.5
20260507081512 50 330 0.0 0.0 0.00 0.23 0.01 91 1006.2
20260507081005 50 330 0.0 0.0 0.00 0.23 0.01 91 1006.1
20260507080507 50 330 0.0 0.0 0.00 0.23 0.01 91 1006.1
20260507080016 50 330 0.0 0.0 0.00 0.23 0.01 91 1006.1
20260507075506 50 330 0.0 0.0 0.00 0.23 0.01 91 1005.9
20260507075011 50 328 0.0 1.7 0.00 0.23 0.01 92 1005.8
20260507074527 50 355 0.0 1.7 0.00 0.23 0.01 92 1005.9
20260507074003 50 251 0.0 0.0 0.00 0.23 0.01 91 1006.1
20260507073503 50 251 0.0 0.0 0.00 0.23 0.01 91 1006.3
20260507073006 50 251 0.0 0.0 0.00 0.23 0.01 91 1006.1
20260507072504 51 340 0.0 0.0 0.00 0.23 0.01 91 1006.1
20260507072006 51 340 0.0 0.0 0.00 0.23 0.01 91 1006.0
20260507071510 51 340 0.0 0.0 0.00 0.23 0.01 92 1005.8
20260507071008 51 340 0.0 0.0 0.00 0.23 0.01 92 1005.6
20260507070508 51 338 0.0 0.0 0.00 0.23 0.01 92 1005.6
20260507070016 51 338 0.0 0.0 0.00 0.23 0.01 91 1005.7
20260507065512 51 338 0.0 1.7 0.00 0.23 0.01 91 1005.6
20260507065008 51 9 0.0 1.7 0.00 0.23 0.01 91 1005.5
20260507064520 51 355 0.0 1.7 0.00 0.23 0.01 91 1005.5
20260507064007 51 14 0.0 1.7 0.00 0.23 0.01 92 1005.8
20260507063508 51 15 0.0 1.7 0.00 0.23 0.01 91 1005.7
20260507063024 52 340 0.0 1.7 0.00 0.23 0.01 92 1005.7
20260507062504 52 350 0.0 1.7 0.00 0.23 0.01 92 1005.7
20260507062002 52 342 0.0 1.7 0.00 0.23 0.01 92 1005.5
20260507061506 52 312 0.0 3.5 0.00 0.23 0.01 92 1005.3
20260507061005 52 308 0.9 3.5 0.00 0.23 0.01 92 1005.5
20260507060504 52 314 0.0 1.7 0.00 0.23 0.01 92 1005.4
20260507060012 52 330 0.0 1.7 0.00 0.23 0.01 92 1005.5
20260507055504 52 313 0.0 2.6 0.00 0.23 0.01 92 1005.5
20260507055008 53 330 1.7 4.3 0.00 0.23 0.01 92 1005.5
20260507054518 53 319 1.7 4.3 0.00 0.23 0.01 92 1005.3
20260507054010 53 317 1.7 4.3 0.00 0.23 0.01 92 1005.2
20260507053509 53 298 0.9 3.5 0.00 0.23 0.01 92 1005.0
20260507053020 53 270 0.9 3.5 0.00 0.23 0.01 92 1005.2
20260507052510 53 309 0.9 2.6 0.00 0.23 0.01 92 1005.2
20260507052009 53 269 0.0 3.5 0.00 0.23 0.01 92 1005.0
20260507051524 53 322 0.9 3.5 0.01 0.23 0.01 92 1004.9
20260507051010 53 320 0.9 5.2 0.01 0.23 0.01 92 1004.9
20260507050504 53 324 1.7 5.2 0.01 0.23 0.01 92 1004.8
20260507050011 53 318 0.9 4.3 0.01 0.23 0.01 92 1005.2
20260507045506 54 249 0.9 6.1 0.01 0.23 0.01 92 1005.2
20260507045004 54 320 0.9 6.1 0.01 0.23 0.01 93 1005.3
20260507044515 54 230 0.9 3.5 0.01 0.23 0.01 93 1005.0
20260507044008 54 312 0.9 3.5 0.01 0.23 0.01 93 1004.5
20260507043507 54 279 1.7 4.3 0.01 0.23 0.01 93 1004.5
20260507043027 54 317 1.7 6.1 0.01 0.23 0.01 93 1004.4
20260507042510 54 288 1.7 7.8 0.02 0.23 0.01 93 1004.3
20260507042009 54 257 1.7 7.8 0.02 0.23 0.01 93 1004.4
20260507041524 54 286 1.7 7.0 0.01 0.22 0.00 93 1004.3
20260507041009 55 255 2.6 6.1 0.01 0.22 0.00 93 1004.3
20260507040510 55 314 1.7 7.0 0.01 0.22 0.00 93 1004.2
20260507040025 55 319 2.6 7.0 0.01 0.22 0.00 94 1004.6
20260507035504 54 303 0.9 2.6 0.01 0.22 0.22 94 1004.7
20260507035003 54 203 0.9 2.6 0.01 0.22 0.22 93 1004.7
20260507034518 55 205 0.0 1.7 0.01 0.22 0.22 95 1004.6
20260507034005 54 215 0.0 1.7 0.01 0.22 0.22 95 1004.7
20260507033510 54 252 0.9 2.6 0.01 0.22 0.22 95 1004.6
20260507033017 53 257 0.9 2.6 0.01 0.22 0.22 95 1004.4
20260507032511 51 306 0.0 1.7 0.00 0.21 0.21 95 1004.4
20260507032013 50 285 0.0 1.7 0.00 0.21 0.21 94 1004.3
20260507031521 49 200 0.0 0.0 0.00 0.21 0.21 92 1004.1
20260507031011 49 200 0.0 0.0 0.00 0.21 0.21 92 1004.0
20260507030512 49 211 0.0 0.0 0.00 0.21 0.21 92 1004.0
20260507030024 50 198 0.0 1.7 0.00 0.21 0.21 92 1004.0
20260507025507 51 182 0.0 1.7 0.00 0.21 0.21 91 1004.1
20260507025009 51 202 0.0 3.5 0.00 0.21 0.21 92 1004.1
20260507024528 52 202 0.9 3.5 0.00 0.21 0.21 92 1004.2
20260507024008 53 228 1.7 3.5 0.00 0.21 0.21 93 1004.3
20260507023504 53 183 1.7 3.5 0.00 0.21 0.21 93 1004.3
20260507023014 52 211 1.7 4.3 0.00 0.21 0.21 93 1004.3
20260507022506 53 215 1.7 7.8 0.00 0.21 0.21 93 1004.4
20260507022009 53 210 2.6 7.8 0.01 0.21 0.21 93 1004.4
20260507021519 53 224 3.5 7.0 0.01 0.21 0.21 94 1004.4
20260507021015 52 238 1.7 8.7 0.01 0.21 0.21 94 1004.6
20260507020510 51 205 3.5 8.7 0.01 0.21 0.21 94 1004.7
20260507020024 50 199 3.5 5.2 0.01 0.21 0.21 93 1004.7
20260507015509 50 217 2.6 5.2 0.01 0.21 0.21 93 1004.7
20260507015013 50 206 3.5 7.0 0.01 0.21 0.21 92 1004.7
20260507014525 51 207 4.3 9.6 0.01 0.21 0.21 92 1004.8
20260507014010 52 200 4.3 9.6 0.01 0.21 0.21 93 1004.9
20260507013507 51 217 5.2 9.6 0.01 0.21 0.21 93 1004.9
20260507013012 51 201 5.2 8.7 0.01 0.21 0.21 92 1005.0
20260507012508 51 208 5.2 11.3 0.01 0.21 0.21 92 1004.9
20260507012012 52 219 6.1 11.3 0.00 0.20 0.20 92 1004.9
20260507011532 52 213 6.1 10.4 0.00 0.20 0.20 93 1004.9
20260507011007 52 209 6.1 12.2 0.00 0.20 0.20 93 1004.9
20260507010505 52 221 5.2 12.2 0.00 0.20 0.20 93 1005.0
20260507010022 52 199 5.2 11.3 0.00 0.20 0.20 93 1005.0
20260507005512 52 187 7.0 11.3 0.00 0.20 0.20 93 1005.1
20260507005008 51 201 6.1 11.3 0.00 0.20 0.20 93 1005.1
20260507004523 51 209 6.1 10.4 0.00 0.20 0.20 93 1005.1
20260507004009 51 226 6.1 12.2 0.00 0.20 0.20 91 1005.1
20260507003511 52 215 7.0 12.2 0.00 0.20 0.20 93 1005.0
20260507003027 52 214 6.1 12.2 0.00 0.20 0.20 93 1005.1
20260507002509 51 221 6.1 11.3 0.00 0.20 0.20 92 1005.1
20260507002011 51 195 7.0 11.3 0.00 0.20 0.20 92 1005.1
20260507001514 51 203 6.1 11.3 0.00 0.20 0.20 93 1005.1
20260507001009 51 184 7.0 13.9 0.00 0.20 0.20 92 1005.1
20260507000509 51 206 8.7 12.2 0.00 0.20 0.20 92 1005.1
20260507000020 51 195 6.1 13.9 0.00 0.20 0.20 92 1005.2
20260506235508 52 227 7.0 16.5 0.00 0.20 0.20 92 1005.2
20260506235005 52 205 9.6 16.5 0.00 0.20 0.20 92 1005.3
20260506234530 52 223 8.7 13.9 0.00 0.20 0.20 92 1005.3
20260506234009 52 207 7.8 13.9 0.00 0.20 0.20 92 1005.3
20260506233509 52 245 8.7 13.0 0.00 0.20 0.20 92 1005.3
20260506233007 52 236 7.0 14.8 0.00 0.20 0.20 92 1005.3
20260506232504 52 200 7.0 14.8 0.01 0.20 0.20 92 1005.3
20260506232009 52 213 7.0 11.3 0.01 0.20 0.20 92 1005.4
20260506231513 52 203 7.0 12.2 0.01 0.20 0.20 92 1005.4
20260506231003 52 194 7.0 12.2 0.01 0.20 0.20 91 1005.5
20260506230504 52 225 6.1 12.2 0.01 0.20 0.20 91 1005.5
20260506230017 52 237 7.0 11.3 0.01 0.20 0.20 92 1005.6
20260506225505 52 207 6.1 11.3 0.02 0.20 0.20 92 1005.6
20260506225005 51 199 5.2 8.7 0.02 0.20 0.20 92 1005.6
20260506224504 51 173 4.3 7.8 0.03 0.20 0.20 92 1005.7
20260506224002 51 199 3.5 7.0 0.04 0.20 0.20 91 1005.6
20260506223502 51 217 4.3 10.4 0.05 0.20 0.20 91 1005.7
20260506223003 51 220 7.0 10.4 0.06 0.20 0.20 92 1005.7
20260506222506 51 213 5.2 9.6 0.06 0.19 0.19 91 1005.6
20260506222007 51 209 5.2 12.2 0.06 0.19 0.19 90 1005.7
20260506221509 52 190 6.1 12.2 0.07 0.19 0.19 91 1005.7
20260506221004 52 194 7.8 13.9 0.08 0.19 0.19 92 1005.8
20260506220505 52 244 7.0 13.9 0.08 0.19 0.19 91 1005.8
20260506220016 52 207 7.8 13.0 0.09 0.19 0.19 91 1005.9
20260506215506 52 203 8.7 14.8 0.09 0.18 0.18 91 1005.9
20260506215009 52 205 8.7 14.8 0.10 0.18 0.18 91 1005.8
20260506214519 52 199 8.7 13.0 0.10 0.17 0.17 91 1006.0
20260506214005 52 188 7.8 13.0 0.09 0.16 0.16 90 1006.1
20260506213509 52 204 7.8 13.9 0.09 0.15 0.15 90 1006.1
20260506213003 53 195 7.8 13.9 0.08 0.14 0.14 90 1006.0
20260506212505 52 214 7.8 13.0 0.07 0.13 0.13 89 1006.2
20260506212002 53 228 7.0 11.3 0.07 0.13 0.13 90 1006.3
20260506211506 53 202 5.2 13.9 0.07 0.12 0.12 90 1006.4
20260506211005 53 201 6.1 13.9 0.06 0.11 0.11 90 1006.4
20260506210507 53 202 7.0 13.9 0.06 0.11 0.11 90 1006.4
20260506210012 53 217 7.0 14.8 0.05 0.10 0.10 90 1006.4
20260506205505 52 222 8.7 14.8 0.04 0.09 0.09 90 1006.4
20260506205006 52 180 7.8 13.0 0.04 0.08 0.08 90 1006.4
20260506204516 51 236 7.0 10.4 0.03 0.07 0.07 89 1006.5
20260506204011 51 207 7.8 10.4 0.03 0.07 0.07 89 1006.4
20260506203506 51 169 7.8 10.4 0.03 0.06 0.06 90 1006.4
20260506203023 50 194 5.2 8.7 0.03 0.06 0.06 89 1006.3
20260506202509 50 195 7.0 9.6 0.04 0.06 0.06 88 1006.5
20260506202011 50 193 7.0 9.6 0.05 0.06 0.06 88 1006.4
20260506201504 51 198 7.0 8.7 0.04 0.05 0.05 87 1006.4
20260506201002 52 212 5.2 8.7 0.05 0.05 0.05 87 1006.4
20260506200504 52 192 5.2 7.0 0.05 0.05 0.05 87 1006.3
20260506200011 52 197 2.6 7.8 0.05 0.05 0.05 87 1006.2
20260506195508 53 177 3.5 7.8 0.05 0.05 0.05 85 1006.9
20260506195007 53 182 5.2 7.0 0.04 0.04 0.04 83 1006.9
20260506194514 55 194 5.2 6.1 0.04 0.04 0.04 84 1006.9
20260506194008 56 205 2.6 10.4 0.04 0.04 0.04 85 1007.0
20260506193505 56 217 2.6 11.3 0.03 0.03 0.03 84 1007.1
20260506193017 56 197 3.5 8.7 0.03 0.03 0.03 84 1007.1
20260506192507 57 188 3.5 8.7 0.02 0.02 0.02 84 1007.3
20260506192009 57 231 1.7 8.7 0.01 0.01 0.01 84 1007.3
20260506191523 57 355 1.7 8.7 0.01 0.01 0.01 83 1007.2
20260506191010 57 253 2.6 8.7 0.00 0.00 0.00 83 1007.2
20260506190508 57 195 2.6 7.8 0.00 0.00 0.00 84 1006.9
20260506190008 56 199 1.7 13.9 0.00 0.00 0.00 84 1007.0
20260506185504 56 272 3.5 13.9 0.00 0.00 0.00 83 1007.1
20260506185003 55 215 5.2 13.9 0.00 0.00 0.00 84 1007.1
20260506184512 54 209 7.0 11.3 0.00 0.00 0.00 83 1006.9
20260506184003 54 213 6.1 13.9 0.00 0.00 0.00 83 1006.8
20260506183508 54 197 7.8 13.9 0.00 0.00 0.00 83 1006.8
20260506183027 53 192 9.6 13.9 0.00 0.00 0.00 82 1006.8
20260506182506 53 179 9.6 15.6 0.00 0.00 0.00 82 1006.8
20260506182017 54 199 10.4 15.6 0.00 0.00 0.00 82 1006.9
20260506181520 54 188 8.7 15.6 0.00 0.00 0.00 81 1007.0
20260506181007 54 230 9.6 16.5 0.00 0.00 0.00 82 1006.9
20260506180506 54 226 9.6 16.5 0.00 0.00 0.00 82 1007.0
20260506180026 54 187 9.6 14.8 0.00 0.00 0.00 82 1007.0
20260506175509 54 201 10.4 13.0 0.00 0.00 0.00 84 1007.0
20260506175010 53 207 9.6 13.0 0.00 0.00 0.00 83 1007.1
20260506174514 52 191 9.6 13.0 0.00 0.00 0.00 84 1007.1
20260506174007 52 201 8.7 12.2 0.00 0.00 0.00 83 1007.1
20260506173504 52 188 8.7 12.2 0.00 0.00 0.00 83 1007.2
20260506173014 52 205 8.7 10.4 0.00 0.00 0.00 83 1007.3
20260506172511 52 205 7.0 8.7 0.00 0.00 0.00 83 1007.3
20260506172009 52 168 6.1 10.4 0.00 0.00 0.00 83 1007.4
20260506171517 52 182 7.8 10.4 0.00 0.00 0.00 84 1007.5
20260506171007 52 196 5.2 8.7 0.00 0.00 0.00 83 1007.6
20260506170508 52 217 7.0 8.7 0.00 0.00 0.00 83 1007.7
20260506170024 52 183 6.1 8.7 0.00 0.00 0.00 83 1007.8
20260506165510 52 188 5.2 9.6 0.00 0.00 0.00 82 1007.8
20260506165010 53 202 7.0 9.6 0.00 0.00 0.00 83 1008.0
20260506164526 53 197 6.1 10.4 0.00 0.00 0.00 81 1008.0
20260506164009 54 197 7.0 11.3 0.00 0.00 0.00 81 1008.1
20260506163503 54 198 8.7 12.2 0.00 0.00 0.00 82 1008.1
20260506163019 54 229 8.7 12.2 0.00 0.00 0.00 81 1008.2
20260506162505 55 191 8.7 11.3 0.00 0.00 0.00 81 1008.4
20260506162012 55 189 7.0 9.6 0.00 0.00 0.00 80 1008.4
20260506161517 56 213 7.0 9.6 0.00 0.00 0.00 80 1008.6
20260506161008 56 212 6.1 10.4 0.00 0.00 0.00 79 1008.7
20260506160508 56 218 7.0 11.3 0.00 0.00 0.00 79 1008.7
20260506160019 56 199 7.8 11.3 0.00 0.00 0.00 80 1008.9
20260506155508 56 188 8.7 11.3 0.00 0.00 0.00 80 1008.9
20260506155011 56 207 8.7 11.3 0.00 0.00 0.00 81 1009.0
20260506154534 56 206 7.0 10.4 0.00 0.00 0.00 81 1009.0
20260506154013 55 193 7.0 12.2 0.00 0.00 0.00 81 1009.0
20260506153512 56 205 7.8 13.9 0.00 0.00 0.00 81 1008.9
20260506153029 56 202 10.4 13.0 0.00 0.00 0.00 81 1008.9
20260506152515 56 194 8.7 12.2 0.00 0.00 0.00 80 1009.0
20260506152011 57 207 7.8 12.2 0.00 0.00 0.00 80 1009.1
20260506151514 57 186 7.0 13.0 0.00 0.00 0.00 80 1009.1
20260506151008 57 207 8.7 13.0 0.00 0.00 0.00 80 1009.0
20260506150509 57 217 8.7 12.2 0.00 0.00 0.00 81 1008.8
20260506150017 56 234 8.7 14.8 0.00 0.00 0.00 82 1008.9
20260506145507 55 189 10.4 14.8 0.00 0.00 0.00 86 1008.8
20260506145007 54 195 8.7 13.0 0.00 0.00 0.00 86 1008.9
20260506144523 54 182 7.0 10.4 0.00 0.00 0.00 83 1008.8
20260506144009 54 202 7.8 10.4 0.00 0.00 0.00 83 1008.7
20260506143508 54 199 7.8 10.4 0.00 0.00 0.00 84 1008.7
20260506143008 54 192 7.8 10.4 0.00 0.00 0.00 83 1008.8
20260506142503 54 184 7.0 12.2 0.00 0.00 0.00 81 1008.8
20260506142007 55 178 8.7 12.2 0.00 0.00 0.00 84 1008.8
20260506141512 54 207 7.8 11.3 0.00 0.00 0.00 84 1008.9
20260506141012 54 188 7.0 8.7 0.00 0.00 0.00 84 1009.0
20260506140504 54 193 7.0 8.7 0.00 0.00 0.00 84 1009.0
20260506140020 54 188 6.1 8.7 0.00 0.00 0.00 83 1009.1
20260506135511 54 197 7.0 8.7 0.00 0.00 0.00 84 1009.1
20260506135002 55 195 7.0 9.6 0.00 0.00 0.00 83 1009.2
20260506134505 55 205 5.2 9.6 0.00 0.00 0.00 84 1009.1
20260506134005 54 203 6.1 8.7 0.00 0.00 0.00 84 1009.1
20260506133504 54 213 5.2 9.6 0.00 0.00 0.00 84 1009.0
20260506133005 54 182 6.1 9.6 0.00 0.00 0.00 84 1009.1
20260506132508 54 190 6.1 8.7 0.00 0.00 0.00 84 1009.0
20260506132005 54 204 6.1 9.6 0.00 0.00 0.00 84 1008.9
20260506131515 54 218 6.1 10.4 0.00 0.00 0.00 84 1008.9
20260506131010 54 201 7.0 10.4 0.00 0.00 0.00 84 1008.9
20260506130512 54 199 6.1 9.6 0.00 0.00 0.00 84 1008.9
20260506130014 54 193 6.1 8.7 0.00 0.00 0.00 84 1008.8
20260506125506 54 210 6.1 11.3 0.00 0.00 0.00 85 1008.9
20260506125006 54 203 6.1 11.3 0.00 0.00 0.00 85 1008.9
20260506124519 54 238 6.1 11.3 0.00 0.00 0.00 85 1008.9
20260506124009 54 200 6.1 10.4 0.00 0.00 0.00 87 1009.0
20260506123503 53 194 6.1 8.7 0.00 0.00 0.00 85 1008.9
20260506123008 53 201 6.1 9.6 0.00 0.00 0.00 86 1008.8
20260506122506 53 223 7.8 9.6 0.00 0.00 0.00 86 1008.9
20260506122003 53 199 6.1 7.8 0.00 0.00 0.00 86 1009.0
20260506121505 52 218 4.3 6.1 0.00 0.00 0.00 86 1009.2
20260506121004 52 209 4.3 6.1 0.00 0.00 0.00 86 1009.1
20260506120504 52 199 3.5 5.2 0.00 0.00 0.00 86 1009.3
20260506120012 52 210 2.6 5.2 0.00 0.00 0.00 87 1009.2
20260506115507 52 182 4.3 5.2 0.00 0.00 0.00 86 1009.0
20260506115008 52 190 2.6 5.2 0.00 0.00 0.00 87 1009.4
20260506114515 52 198 3.5 6.1 0.00 0.00 0.00 87 1009.4
20260506114009 52 206 4.3 6.1 0.00 0.00 0.00 87 1009.4
20260506113509 52 204 1.7 3.5 0.00 0.00 0.00 87 1009.5
20260506113022 52 182 0.0 3.5 0.00 0.00 0.00 88 1009.7
20260506112512 51 191 0.9 3.5 0.00 0.00 0.00 88 1009.7
20260506112003 50 195 0.0 1.7 0.00 0.00 0.00 87 1009.3
20260506111506 51 195 0.0 2.6 0.00 0.00 0.00 87 1009.3
20260506111003 50 193 1.7 2.6 0.00 0.00 0.00 87 1009.6
20260506110504 50 176 1.7 2.6 0.00 0.00 0.00 87 1009.4
20260506110011 50 221 0.9 1.7 0.00 0.00 0.00 88 1009.3